Time,TemperatureF,DewpointF,PressureIn,WindDirection,WindDirectionDegrees,WindSpeedMPH,WindSpeedGustMPH,Humidity,HourlyPrecipIn,Conditions,Clouds,dailyrainin,SoftwareType,DateUTC
2013-10-11 00:00:00,61.0,54.1,29.51,North,-999,-999.0,-999.0,78,0.00,,,0.00,meteohub,2013-10-11 05:00:00,
2013-10-11 00:05:00,61.0,54.5,29.51,North,-999,-999.0,-999.0,79,0.00,,,0.00,meteohub,2013-10-11 05:05:00,
2013-10-11 00:10:00,61.0,54.5,29.51,North,-999,-999.0,-999.0,79,0.00,,,0.00,meteohub,2013-10-11 05:10:00,
2013-10-11 00:15:00,61.0,54.5,29.51,North,-999,-999.0,-999.0,79,0.00,,,0.00,meteohub,2013-10-11 05:15:00,
2013-10-11 00:20:00,61.0,54.5,29.51,East,90,1.0,-999.0,79,0.00,,,0.00,meteohub,2013-10-11 05:20:00,
2013-10-11 00:25:00,61.0,54.5,29.51,East,90,1.0,1.0,79,0.00,,,0.00,meteohub,2013-10-11 05:25:00,
2013-10-11 00:30:00,61.0,54.5,29.51,East,90,1.0,1.0,79,0.00,,,0.00,meteohub,2013-10-11 05:30:00,
2013-10-11 00:35:00,60.8,54.3,29.51,East,90,1.0,1.0,79,0.00,,,0.00,meteohub,2013-10-11 05:35:00,
2013-10-11 00:41:00,60.6,54.5,29.51,North,-999,-999.0,1.0,80,0.00,,,0.00,meteohub,2013-10-11 05:41:00,
2013-10-11 00:46:00,60.6,54.5,29.51,North,-999,-999.0,1.0,80,0.00,,,0.00,meteohub,2013-10-11 05:46:00,
2013-10-11 00:51:00,60.4,54.3,29.51,North,-999,-999.0,-999.0,80,0.00,,,0.00,meteohub,2013-10-11 05:51:00,
2013-10-11 00:56:00,60.4,54.3,29.51,North,-999,-999.0,-999.0,80,0.00,,,0.00,meteohub,2013-10-11 05:56:00,
2013-10-11 01:01:00,60.4,54.3,29.51,North,-999,-999.0,-999.0,80,0.00,,,0.00,meteohub,2013-10-11 06:01:00,
2013-10-11 01:06:00,60.4,54.5,29.51,North,-999,-999.0,-999.0,81,0.00,,,0.00,meteohub,2013-10-11 06:06:00,
2013-10-11 01:11:00,60.3,54.1,29.51,North,-999,-999.0,-999.0,80,0.00,,,0.00,meteohub,2013-10-11 06:11:00,
2013-10-11 01:16:00,60.1,54.0,29.51,North,-999,-999.0,-999.0,80,0.00,,,0.00,meteohub,2013-10-11 06:16:00,
2013-10-11 01:21:00,59.9,53.8,29.51,North,-999,-999.0,-999.0,80,0.00,,,0.00,meteohub,2013-10-11 06:21:00,
2013-10-11 01:27:00,59.9,53.8,29.51,North,-999,-999.0,-999.0,80,0.00,,,0.00,meteohub,2013-10-11 06:27:00,
2013-10-11 01:32:00,59.9,54.1,29.51,North,-999,-999.0,-999.0,81,0.00,,,0.00,meteohub,2013-10-11 06:32:00,
2013-10-11 01:37:00,59.7,53.6,29.51,North,-999,-999.0,-999.0,80,0.00,,,0.00,meteohub,2013-10-11 06:37:00,
2013-10-11 01:42:00,59.7,53.6,29.51,North,-999,-999.0,-999.0,80,0.00,,,0.00,meteohub,2013-10-11 06:42:00,
2013-10-11 01:47:00,59.7,54.0,29.51,East,90,0.0,0.0,81,0.00,,,0.00,meteohub,2013-10-11 06:47:00,
2013-10-11 01:52:00,59.5,53.8,29.51,East,90,0.0,0.0,81,0.00,,,0.00,meteohub,2013-10-11 06:52:00,
2013-10-11 01:57:00,59.4,53.2,29.51,East,90,0.0,0.0,80,0.00,,,0.00,meteohub,2013-10-11 06:57:00,
2013-10-11 02:02:00,59.4,53.6,29.51,East,90,0.0,0.0,81,0.00,,,0.00,meteohub,2013-10-11 07:02:00,
2013-10-11 02:07:00,59.4,53.6,29.51,East,90,0.0,0.0,81,0.00,,,0.00,meteohub,2013-10-11 07:07:00,
2013-10-11 02:12:00,59.4,53.6,29.51,East,90,0.0,0.0,81,0.00,,,0.00,meteohub,2013-10-11 07:12:00,
2013-10-11 02:17:00,59.4,53.6,29.51,East,90,0.0,0.0,81,0.00,,,0.00,meteohub,2013-10-11 07:17:00,
2013-10-11 02:22:00,59.4,53.6,29.51,East,90,1.0,0.0,81,0.00,,,0.00,meteohub,2013-10-11 07:22:00,
2013-10-11 02:27:00,59.4,53.6,29.51,East,90,1.0,1.0,81,0.00,,,0.00,meteohub,2013-10-11 07:27:00,
2013-10-11 02:32:00,59.2,53.4,29.51,East,90,1.0,1.0,81,0.00,,,0.00,meteohub,2013-10-11 07:32:00,
2013-10-11 02:37:00,59.2,53.4,29.51,East,90,1.0,1.0,81,0.00,,,0.00,meteohub,2013-10-11 07:37:00,
2013-10-11 02:42:00,59.0,53.2,29.51,East,90,0.0,1.0,81,0.00,,,0.00,meteohub,2013-10-11 07:42:00,
2013-10-11 02:47:00,59.0,53.2,29.51,East,90,0.0,1.0,81,0.00,,,0.00,meteohub,2013-10-11 07:47:00,
2013-10-11 02:53:00,58.8,53.1,29.51,East,90,0.0,1.0,81,0.00,,,0.00,meteohub,2013-10-11 07:53:00,
2013-10-11 02:58:00,58.8,53.4,29.51,East,90,0.0,1.0,82,0.00,,,0.00,meteohub,2013-10-11 07:58:00,
2013-10-11 03:03:00,58.6,53.2,29.51,East,90,0.0,0.0,82,0.00,,,0.00,meteohub,2013-10-11 08:03:00,
2013-10-11 03:08:00,58.6,53.2,29.48,ENE,68,1.0,0.0,82,0.00,,,0.00,meteohub,2013-10-11 08:08:00,
2013-10-11 03:13:00,58.5,53.1,29.48,ENE,68,1.0,2.0,82,0.00,,,0.00,meteohub,2013-10-11 08:13:00,
2013-10-11 03:18:00,58.5,53.1,29.48,ENE,68,1.0,2.0,82,0.00,,,0.00,meteohub,2013-10-11 08:18:00,
2013-10-11 03:23:00,58.5,53.1,29.51,ENE,68,1.0,2.0,82,0.00,,,0.00,meteohub,2013-10-11 08:23:00,
2013-10-11 03:28:00,58.5,53.1,29.51,ENE,68,0.0,1.0,82,0.00,,,0.00,meteohub,2013-10-11 08:28:00,
2013-10-11 03:33:00,58.5,53.2,29.51,ENE,68,0.0,1.0,83,0.00,,,0.00,meteohub,2013-10-11 08:33:00,
2013-10-11 03:38:00,58.6,53.4,29.51,ENE,68,0.0,1.0,83,0.00,,,0.00,meteohub,2013-10-11 08:38:00,
2013-10-11 03:43:00,58.5,53.2,29.51,North,-999,-999.0,0.0,83,0.00,,,0.00,meteohub,2013-10-11 08:43:00,
2013-10-11 03:48:00,58.3,53.1,29.51,North,-999,-999.0,0.0,83,0.00,,,0.00,meteohub,2013-10-11 08:48:00,
2013-10-11 03:53:00,58.3,53.1,29.51,North,-999,-999.0,0.0,83,0.00,,,0.00,meteohub,2013-10-11 08:53:00,
2013-10-11 03:58:00,58.3,53.1,29.51,North,-999,-999.0,-999.0,83,0.00,,,0.00,meteohub,2013-10-11 08:58:00,
2013-10-11 04:04:00,58.3,53.1,29.51,North,-999,-999.0,-999.0,83,0.00,,,0.00,meteohub,2013-10-11 09:04:00,
2013-10-11 04:09:00,58.1,52.9,29.51,North,-999,-999.0,-999.0,83,0.00,,,0.00,meteohub,2013-10-11 09:09:00,
2013-10-11 04:14:00,58.1,52.9,29.51,North,-999,-999.0,-999.0,83,0.00,,,0.00,meteohub,2013-10-11 09:14:00,
2013-10-11 04:19:00,57.9,52.9,29.51,North,-999,-999.0,-999.0,83,0.00,,,0.00,meteohub,2013-10-11 09:19:00,
2013-10-11 04:24:00,57.9,52.9,29.54,North,-999,-999.0,-999.0,83,0.00,,,0.00,meteohub,2013-10-11 09:24:00,
2013-10-11 04:29:00,57.9,52.9,29.54,North,-999,-999.0,-999.0,83,0.00,,,0.00,meteohub,2013-10-11 09:29:00,
2013-10-11 04:34:00,57.9,52.9,29.54,North,-999,-999.0,-999.0,83,0.00,,,0.00,meteohub,2013-10-11 09:34:00,
2013-10-11 04:39:00,57.9,52.9,29.51,North,-999,-999.0,-999.0,83,0.00,,,0.00,meteohub,2013-10-11 09:39:00,
2013-10-11 04:44:00,57.7,52.7,29.51,North,-999,-999.0,-999.0,83,0.00,,,0.00,meteohub,2013-10-11 09:44:00,
2013-10-11 04:49:00,57.6,52.5,29.54,North,-999,-999.0,-999.0,83,0.00,,,0.00,meteohub,2013-10-11 09:49:00,
2013-10-11 04:54:00,57.4,52.3,29.54,North,-999,-999.0,-999.0,83,0.00,,,0.00,meteohub,2013-10-11 09:54:00,
2013-10-11 04:59:00,57.4,52.3,29.54,North,-999,-999.0,-999.0,83,0.00,,,0.00,meteohub,2013-10-11 09:59:00,
2013-10-11 05:04:00,57.2,52.2,29.54,North,-999,-999.0,-999.0,83,0.00,,,0.00,meteohub,2013-10-11 10:04:00,
2013-10-11 05:09:00,57.2,52.2,29.54,North,-999,-999.0,-999.0,83,0.00,,,0.00,meteohub,2013-10-11 10:09:00,
2013-10-11 05:15:00,57.0,52.2,29.54,North,-999,-999.0,-999.0,84,0.00,,,0.00,meteohub,2013-10-11 10:15:00,
2013-10-11 05:20:00,57.0,52.2,29.54,North,-999,-999.0,-999.0,84,0.00,,,0.00,meteohub,2013-10-11 10:20:00,
2013-10-11 05:25:00,56.8,52.0,29.54,North,-999,-999.0,-999.0,84,0.00,,,0.00,meteohub,2013-10-11 10:25:00,
2013-10-11 05:30:00,56.8,52.0,29.54,North,-999,-999.0,-999.0,84,0.00,,,0.00,meteohub,2013-10-11 10:30:00,
2013-10-11 05:35:00,56.8,52.0,29.54,North,-999,-999.0,-999.0,84,0.00,,,0.00,meteohub,2013-10-11 10:35:00,
2013-10-11 05:40:00,56.7,51.8,29.54,North,-999,-999.0,-999.0,84,0.00,,,0.00,meteohub,2013-10-11 10:40:00,
2013-10-11 05:45:00,56.7,51.8,29.54,North,-999,-999.0,-999.0,84,0.00,,,0.00,meteohub,2013-10-11 10:45:00,
2013-10-11 05:50:00,56.5,51.8,29.54,North,-999,-999.0,-999.0,84,0.00,,,0.00,meteohub,2013-10-11 10:50:00,
2013-10-11 05:55:00,56.5,51.8,29.54,North,-999,-999.0,-999.0,84,0.00,,,0.00,meteohub,2013-10-11 10:55:00,
2013-10-11 06:00:00,56.5,51.8,29.54,North,-999,-999.0,-999.0,84,0.00,,,0.00,meteohub,2013-10-11 11:00:00,
2013-10-11 06:05:00,56.5,52.0,29.54,North,-999,-999.0,-999.0,85,0.00,,,0.00,meteohub,2013-10-11 11:05:00,
2013-10-11 06:10:00,56.5,52.0,29.54,North,-999,-999.0,-999.0,85,0.00,,,0.00,meteohub,2013-10-11 11:10:00,
2013-10-11 06:15:00,56.5,52.0,29.54,North,-999,-999.0,-999.0,85,0.00,,,0.00,meteohub,2013-10-11 11:15:00,
2013-10-11 06:20:00,56.3,51.6,29.54,North,-999,-999.0,-999.0,84,0.00,,,0.00,meteohub,2013-10-11 11:20:00,
2013-10-11 06:26:00,56.1,51.4,29.54,North,-999,-999.0,-999.0,84,0.00,,,0.00,meteohub,2013-10-11 11:26:00,
2013-10-11 06:31:00,56.3,51.8,29.54,North,-999,-999.0,-999.0,85,0.00,,,0.00,meteohub,2013-10-11 11:31:00,
2013-10-11 06:36:00,56.1,51.6,29.57,North,-999,-999.0,-999.0,85,0.00,,,0.00,meteohub,2013-10-11 11:36:00,
2013-10-11 06:41:00,56.3,51.8,29.57,North,-999,-999.0,-999.0,85,0.00,,,0.00,meteohub,2013-10-11 11:41:00,
2013-10-11 06:46:00,56.1,51.6,29.57,ENE,68,0.0,-999.0,85,0.00,,,0.00,meteohub,2013-10-11 11:46:00,
2013-10-11 06:51:00,56.1,51.6,29.57,ENE,68,0.0,0.0,85,0.00,,,0.00,meteohub,2013-10-11 11:51:00,
2013-10-11 06:56:00,55.9,51.4,29.57,ENE,68,0.0,0.0,85,0.00,,,0.00,meteohub,2013-10-11 11:56:00,
2013-10-11 07:01:00,55.9,51.4,29.57,ENE,68,0.0,0.0,85,0.00,,,0.00,meteohub,2013-10-11 12:01:00,
2013-10-11 07:06:00,56.1,51.6,29.54,ENE,68,0.0,0.0,85,0.00,,,0.00,meteohub,2013-10-11 12:06:00,
2013-10-11 07:11:00,56.3,51.8,29.54,ENE,68,0.0,1.0,85,0.00,,,0.00,meteohub,2013-10-11 12:11:00,
2013-10-11 07:16:00,56.3,52.2,29.54,ENE,68,0.0,1.0,86,0.00,,,0.00,meteohub,2013-10-11 12:16:00,
2013-10-11 07:21:00,56.5,52.3,29.54,East,90,0.0,1.0,86,0.00,,,0.00,meteohub,2013-10-11 12:21:00,
2013-10-11 07:26:00,56.7,52.5,29.54,East,90,0.0,2.0,86,0.00,,,0.00,meteohub,2013-10-11 12:26:00,
2013-10-11 07:31:00,56.7,52.9,29.54,East,90,0.0,2.0,87,0.00,,,0.00,meteohub,2013-10-11 12:31:00,
2013-10-11 07:37:00,56.7,52.9,29.54,East,90,0.0,2.0,87,0.00,,,0.00,meteohub,2013-10-11 12:37:00,
2013-10-11 07:42:00,56.8,53.1,29.54,East,90,0.0,0.0,87,0.00,,,0.00,meteohub,2013-10-11 12:42:00,
2013-10-11 07:47:00,57.0,53.4,29.54,East,90,1.0,1.0,88,0.00,,,0.00,meteohub,2013-10-11 12:47:00,
2013-10-11 07:52:00,57.2,53.6,29.54,East,90,0.0,1.0,88,0.00,,,0.00,meteohub,2013-10-11 12:52:00,
2013-10-11 07:57:00,57.4,53.8,29.54,East,90,0.0,1.0,88,0.00,,,0.00,meteohub,2013-10-11 12:57:00,
2013-10-11 08:02:00,57.6,54.0,29.54,East,90,0.0,1.0,88,0.00,,,0.00,meteohub,2013-10-11 13:02:00,
2013-10-11 08:07:00,57.7,54.1,29.54,East,90,1.0,1.0,88,0.00,,,0.00,meteohub,2013-10-11 13:07:00,
2013-10-11 08:12:00,57.9,54.3,29.54,ESE,112,1.0,1.0,88,0.00,,,0.00,meteohub,2013-10-11 13:12:00,
2013-10-11 08:17:00,58.3,54.7,29.54,ESE,112,0.0,2.0,88,0.00,,,0.00,meteohub,2013-10-11 13:17:00,
2013-10-11 08:22:00,58.6,55.0,29.54,SE,135,0.0,2.0,88,0.00,,,0.00,meteohub,2013-10-11 13:22:00,
2013-10-11 08:27:00,58.8,55.2,29.54,SSE,158,1.0,2.0,88,0.00,,,0.00,meteohub,2013-10-11 13:27:00,
2013-10-11 08:32:00,59.2,55.6,29.54,SSE,158,0.0,3.0,88,0.00,,,0.00,meteohub,2013-10-11 13:32:00,
2013-10-11 08:37:00,59.7,56.1,29.57,East,90,1.0,3.0,88,0.00,,,0.00,meteohub,2013-10-11 13:37:00,
2013-10-11 08:42:00,60.8,57.2,29.57,East,90,0.0,3.0,88,0.00,,,0.00,meteohub,2013-10-11 13:42:00,
2013-10-11 08:47:00,61.7,58.1,29.57,South,180,3.0,3.0,88,0.00,,,0.00,meteohub,2013-10-11 13:47:00,
2013-10-11 08:52:00,62.6,58.6,29.57,ESE,112,1.0,4.0,87,0.00,,,0.00,meteohub,2013-10-11 13:52:00,
2013-10-11 08:57:00,63.1,58.8,29.57,South,180,1.0,4.0,86,0.00,,,0.00,meteohub,2013-10-11 13:57:00,
2013-10-11 09:02:00,64.0,59.4,29.57,SSE,158,2.0,4.0,85,0.00,,,0.00,meteohub,2013-10-11 14:02:00,
2013-10-11 09:07:00,64.9,60.1,29.54,SSE,158,1.0,5.0,84,0.00,,,0.00,meteohub,2013-10-11 14:07:00,
2013-10-11 09:12:00,65.1,59.5,29.54,South,180,3.0,5.0,82,0.00,,,0.00,meteohub,2013-10-11 14:12:00,
2013-10-11 09:17:00,65.3,58.6,29.54,SE,135,0.0,5.0,79,0.00,,,0.00,meteohub,2013-10-11 14:17:00,
2013-10-11 09:22:00,65.5,57.4,29.54,SE,135,4.0,4.0,75,0.00,,,0.00,meteohub,2013-10-11 14:22:00,
2013-10-11 09:27:00,65.7,57.6,29.54,South,180,3.0,4.0,75,0.00,,,0.00,meteohub,2013-10-11 14:27:00,
2013-10-11 09:32:00,65.8,57.4,29.54,SW,225,2.0,6.0,74,0.00,,,0.00,meteohub,2013-10-11 14:32:00,
2013-10-11 09:37:00,66.0,56.7,29.54,South,180,3.0,6.0,72,0.00,,,0.00,meteohub,2013-10-11 14:37:00,
2013-10-11 09:42:00,66.4,57.0,29.54,South,180,6.0,6.0,72,0.00,,,0.00,meteohub,2013-10-11 14:42:00,
2013-10-11 09:47:00,67.3,57.2,29.54,SSW,202,5.0,6.0,70,0.00,,,0.00,meteohub,2013-10-11 14:47:00,
2013-10-11 09:52:00,67.3,56.8,29.54,South,180,5.0,6.0,69,0.00,,,0.00,meteohub,2013-10-11 14:52:00,
2013-10-11 09:57:00,67.1,56.7,29.54,South,180,2.0,6.0,69,0.00,,,0.00,meteohub,2013-10-11 14:57:00,
2013-10-11 10:02:00,67.3,56.8,29.54,East,90,2.0,6.0,69,0.00,,,0.00,meteohub,2013-10-11 15:02:00,
2013-10-11 10:07:00,67.5,57.0,29.54,South,180,3.0,5.0,69,0.00,,,0.00,meteohub,2013-10-11 15:07:00,
2013-10-11 10:12:00,68.4,57.7,29.54,ESE,112,1.0,4.0,69,0.00,,,0.00,meteohub,2013-10-11 15:12:00,
2013-10-11 10:17:00,68.5,57.6,29.54,East,90,3.0,4.0,68,0.00,,,0.00,meteohub,2013-10-11 15:17:00,
2013-10-11 10:22:00,68.5,57.2,29.54,South,180,2.0,6.0,67,0.00,,,0.00,meteohub,2013-10-11 15:22:00,
2013-10-11 10:27:00,68.9,57.6,29.54,South,180,3.0,6.0,67,0.00,,,0.00,meteohub,2013-10-11 15:27:00,
2013-10-11 10:32:00,69.1,57.7,29.54,SSW,202,4.0,6.0,67,0.00,,,0.00,meteohub,2013-10-11 15:32:00,
2013-10-11 10:38:00,69.3,57.4,29.54,WSW,248,1.0,4.0,66,0.00,,,0.00,meteohub,2013-10-11 15:38:00,
2013-10-11 10:43:00,69.6,58.1,29.54,SSE,158,2.0,4.0,67,0.00,,,0.00,meteohub,2013-10-11 15:43:00,
2013-10-11 10:48:00,70.0,58.1,29.54,SSE,158,4.0,4.0,66,0.00,,,0.00,meteohub,2013-10-11 15:48:00,
2013-10-11 10:53:00,70.2,57.9,29.54,South,180,2.0,4.0,65,0.00,,,0.00,meteohub,2013-10-11 15:53:00,
2013-10-11 10:58:00,70.5,58.3,29.54,South,180,5.0,8.0,65,0.00,,,0.00,meteohub,2013-10-11 15:58:00,
2013-10-11 11:03:00,70.9,57.7,29.54,East,90,3.0,8.0,63,0.00,,,0.00,meteohub,2013-10-11 16:03:00,
2013-10-11 11:08:00,71.1,57.9,29.54,SSW,202,3.0,8.0,63,0.00,,,0.00,meteohub,2013-10-11 16:08:00,
2013-10-11 11:13:00,71.6,57.9,29.54,ESE,112,2.0,6.0,62,0.00,,,0.00,meteohub,2013-10-11 16:13:00,
2013-10-11 11:18:00,72.1,57.9,29.54,South,180,3.0,6.0,61,0.00,,,0.00,meteohub,2013-10-11 16:18:00,
2013-10-11 11:23:00,72.7,57.9,29.51,South,180,4.0,6.0,60,0.00,,,0.00,meteohub,2013-10-11 16:23:00,
2013-10-11 11:28:00,73.0,56.8,29.51,SW,225,2.0,8.0,57,0.00,,,0.00,meteohub,2013-10-11 16:28:00,
2013-10-11 11:33:00,73.8,55.6,29.51,SSE,158,3.0,9.0,53,0.00,,,0.00,meteohub,2013-10-11 16:33:00,
2013-10-11 11:38:00,74.1,54.9,29.51,SSE,158,2.0,9.0,51,0.00,,,0.00,meteohub,2013-10-11 16:38:00,
2013-10-11 11:43:00,74.5,54.7,29.51,South,180,6.0,9.0,50,0.00,,,0.00,meteohub,2013-10-11 16:43:00,
2013-10-11 11:49:00,74.8,55.0,29.51,SE,135,4.0,8.0,50,0.00,,,0.00,meteohub,2013-10-11 16:49:00,
2013-10-11 11:54:00,74.7,53.6,29.51,South,180,3.0,8.0,48,0.00,,,0.00,meteohub,2013-10-11 16:54:00,
2013-10-11 11:59:00,74.8,53.2,29.51,SSW,202,6.0,7.0,47,0.00,,,0.00,meteohub,2013-10-11 16:59:00,
2013-10-11 12:04:00,75.0,53.4,29.51,South,180,6.0,8.0,47,0.00,,,0.00,meteohub,2013-10-11 17:04:00,
2013-10-11 12:09:00,74.8,52.7,29.51,SW,225,1.0,10.0,46,0.00,,,0.00,meteohub,2013-10-11 17:09:00,
2013-10-11 12:14:00,75.6,53.4,29.51,South,180,7.0,10.0,46,0.00,,,0.00,meteohub,2013-10-11 17:14:00,
2013-10-11 12:19:00,75.9,51.8,29.51,South,180,3.0,10.0,43,0.00,,,0.00,meteohub,2013-10-11 17:19:00,
2013-10-11 12:24:00,75.7,52.9,29.51,South,180,3.0,11.0,45,0.00,,,0.00,meteohub,2013-10-11 17:24:00,
2013-10-11 12:29:00,75.6,52.2,29.51,NW,315,3.0,11.0,44,0.00,,,0.00,meteohub,2013-10-11 17:29:00,
2013-10-11 12:34:00,75.9,51.8,29.51,SSW,202,6.0,11.0,43,0.00,,,0.00,meteohub,2013-10-11 17:34:00,
2013-10-11 12:39:00,76.1,51.4,29.51,SSW,202,4.0,8.0,42,0.00,,,0.00,meteohub,2013-10-11 17:39:00,
2013-10-11 12:44:00,76.6,53.1,29.51,SE,135,3.0,10.0,44,0.00,,,0.00,meteohub,2013-10-11 17:44:00,
2013-10-11 12:49:00,76.6,52.5,29.51,SSW,202,3.0,10.0,43,0.00,,,0.00,meteohub,2013-10-11 17:49:00,
2013-10-11 12:54:00,77.0,52.2,29.51,SSW,202,3.0,10.0,42,0.00,,,0.00,meteohub,2013-10-11 17:54:00,
2013-10-11 13:00:00,77.0,51.4,29.51,SW,225,3.0,8.0,41,0.00,,,0.00,meteohub,2013-10-11 18:00:00,
2013-10-11 13:05:00,78.3,53.2,29.51,South,180,4.0,8.0,42,0.00,,,0.00,meteohub,2013-10-11 18:05:00,
2013-10-11 13:10:00,78.1,51.8,29.51,SE,135,3.0,8.0,40,0.00,,,0.00,meteohub,2013-10-11 18:10:00,
2013-10-11 13:15:00,77.9,51.6,29.51,SW,225,3.0,6.0,40,0.00,,,0.00,meteohub,2013-10-11 18:15:00,
2013-10-11 13:20:00,77.5,50.7,29.51,South,180,8.0,8.0,39,0.00,,,0.00,meteohub,2013-10-11 18:20:00,
2013-10-11 13:25:00,77.2,51.1,29.51,SE,135,3.0,12.0,40,0.00,,,0.00,meteohub,2013-10-11 18:25:00,
2013-10-11 13:30:00,76.6,50.5,29.51,South,180,2.0,12.0,40,0.00,,,0.00,meteohub,2013-10-11 18:30:00,
2013-10-11 13:35:00,76.5,50.4,29.51,NNE,22,5.0,8.0,40,0.00,,,0.00,meteohub,2013-10-11 18:35:00,
2013-10-11 13:40:00,77.5,51.3,29.51,WSW,248,7.0,9.0,40,0.00,,,0.00,meteohub,2013-10-11 18:40:00,
2013-10-11 13:45:00,78.1,49.6,29.51,WSW,248,3.0,12.0,37,0.00,,,0.00,meteohub,2013-10-11 18:45:00,
2013-10-11 13:50:00,78.1,50.4,29.48,South,180,5.0,12.0,38,0.00,,,0.00,meteohub,2013-10-11 18:50:00,
2013-10-11 13:55:00,78.6,50.9,29.48,South,180,5.0,12.0,38,0.00,,,0.00,meteohub,2013-10-11 18:55:00,
2013-10-11 14:00:00,78.6,50.9,29.48,SSE,158,4.0,9.0,38,0.00,,,0.00,meteohub,2013-10-11 19:00:00,
2013-10-11 14:05:00,78.4,49.3,29.48,South,180,11.0,11.0,36,0.00,,,0.00,meteohub,2013-10-11 19:05:00,
2013-10-11 14:11:00,77.9,50.2,29.48,South,180,4.0,11.0,38,0.00,,,0.00,meteohub,2013-10-11 19:11:00,
2013-10-11 14:16:00,77.4,48.4,29.48,South,180,3.0,11.0,36,0.00,,,0.00,meteohub,2013-10-11 19:16:00,
2013-10-11 14:21:00,77.7,50.2,29.48,SW,225,4.0,11.0,38,0.00,,,0.00,meteohub,2013-10-11 19:21:00,
2013-10-11 14:26:00,78.1,49.6,29.48,South,180,4.0,6.0,37,0.00,,,0.00,meteohub,2013-10-11 19:26:00,
2013-10-11 14:31:00,78.4,50.0,29.48,South,180,6.0,6.0,37,0.00,,,0.00,meteohub,2013-10-11 19:31:00,
2013-10-11 14:36:00,78.6,50.9,29.48,SSW,202,3.0,7.0,38,0.00,,,0.00,meteohub,2013-10-11 19:36:00,
2013-10-11 14:41:00,79.2,50.7,29.48,South,180,3.0,7.0,37,0.00,,,0.00,meteohub,2013-10-11 19:41:00,
2013-10-11 14:46:00,79.2,49.1,29.48,SSW,202,3.0,7.0,35,0.00,,,0.00,meteohub,2013-10-11 19:46:00,
2013-10-11 14:51:00,79.2,49.1,29.48,SSE,158,4.0,9.0,35,0.00,,,0.00,meteohub,2013-10-11 19:51:00,
2013-10-11 14:56:00,79.2,49.1,29.48,SSE,158,3.0,9.0,35,0.00,,,0.00,meteohub,2013-10-11 19:56:00,
2013-10-11 15:01:00,79.0,49.1,29.48,South,180,6.0,9.0,35,0.00,,,0.00,meteohub,2013-10-11 20:01:00,
2013-10-11 15:06:00,78.4,48.6,29.48,South,180,5.0,9.0,35,0.00,,,0.00,meteohub,2013-10-11 20:06:00,
2013-10-11 15:12:00,78.3,48.4,29.48,ENE,68,2.0,9.0,35,0.00,,,0.00,meteohub,2013-10-11 20:12:00,
2013-10-11 15:17:00,78.6,48.7,29.48,South,180,4.0,9.0,35,0.00,,,0.00,meteohub,2013-10-11 20:17:00,
2013-10-11 15:22:00,78.4,48.6,29.48,South,180,4.0,8.0,35,0.00,,,0.00,meteohub,2013-10-11 20:22:00,
2013-10-11 15:27:00,78.3,48.4,29.48,South,180,6.0,8.0,35,0.00,,,0.00,meteohub,2013-10-11 20:27:00,
2013-10-11 15:32:00,78.1,48.2,29.48,SE,135,5.0,8.0,35,0.00,,,0.00,meteohub,2013-10-11 20:32:00,
2013-10-11 15:37:00,77.9,48.0,29.45,South,180,4.0,8.0,35,0.00,,,0.00,meteohub,2013-10-11 20:37:00,
2013-10-11 15:42:00,77.7,47.8,29.45,SE,135,3.0,8.0,35,0.00,,,0.00,meteohub,2013-10-11 20:42:00,
2013-10-11 15:47:00,77.5,47.7,29.45,South,180,3.0,8.0,35,0.00,,,0.00,meteohub,2013-10-11 20:47:00,
2013-10-11 15:52:00,77.4,47.7,29.45,SW,225,2.0,6.0,35,0.00,,,0.00,meteohub,2013-10-11 20:52:00,
2013-10-11 15:57:00,77.0,47.3,29.45,SE,135,2.0,6.0,35,0.00,,,0.00,meteohub,2013-10-11 20:57:00,
2013-10-11 16:02:00,76.8,47.1,29.45,NW,315,3.0,6.0,35,0.00,,,0.00,meteohub,2013-10-11 21:02:00,
2013-10-11 16:07:00,76.6,47.7,29.45,SSE,158,7.0,7.0,36,0.00,,,0.00,meteohub,2013-10-11 21:07:00,
2013-10-11 16:12:00,76.6,47.7,29.45,South,180,3.0,7.0,36,0.00,,,0.00,meteohub,2013-10-11 21:12:00,
2013-10-11 16:17:00,76.5,47.5,29.45,SE,135,4.0,7.0,36,0.00,,,0.00,meteohub,2013-10-11 21:17:00,
2013-10-11 16:22:00,76.1,47.3,29.45,South,180,3.0,7.0,36,0.00,,,0.00,meteohub,2013-10-11 21:22:00,
2013-10-11 16:27:00,75.9,47.1,29.45,SE,135,3.0,6.0,36,0.00,,,0.00,meteohub,2013-10-11 21:27:00,
2013-10-11 16:32:00,75.9,47.1,29.45,SSW,202,5.0,6.0,36,0.00,,,0.00,meteohub,2013-10-11 21:32:00,
2013-10-11 16:37:00,75.9,47.8,29.45,SSE,158,4.0,5.0,37,0.00,,,0.00,meteohub,2013-10-11 21:37:00,
2013-10-11 16:42:00,75.9,47.8,29.45,South,180,2.0,5.0,37,0.00,,,0.00,meteohub,2013-10-11 21:42:00,
2013-10-11 16:47:00,75.7,48.4,29.45,South,180,2.0,6.0,38,0.00,,,0.00,meteohub,2013-10-11 21:47:00,
2013-10-11 16:52:00,75.7,47.7,29.45,SW,225,2.0,6.0,37,0.00,,,0.00,meteohub,2013-10-11 21:52:00,
2013-10-11 16:57:00,75.7,47.7,29.45,South,180,2.0,4.0,37,0.00,,,0.00,meteohub,2013-10-11 21:57:00,
2013-10-11 17:02:00,75.6,48.2,29.45,SE,135,3.0,4.0,38,0.00,,,0.00,meteohub,2013-10-11 22:02:00,
2013-10-11 17:07:00,75.4,47.3,29.45,South,180,4.0,4.0,37,0.00,,,0.00,meteohub,2013-10-11 22:07:00,
2013-10-11 17:13:00,75.2,47.8,29.45,SE,135,3.0,4.0,38,0.00,,,0.00,meteohub,2013-10-11 22:13:00,
2013-10-11 17:18:00,74.8,47.5,29.45,South,180,3.0,4.0,38,0.00,,,0.00,meteohub,2013-10-11 22:18:00,
2013-10-11 17:23:00,74.7,48.0,29.45,SSE,158,3.0,4.0,39,0.00,,,0.00,meteohub,2013-10-11 22:23:00,
2013-10-11 17:28:00,74.5,47.8,29.45,SSE,158,3.0,4.0,39,0.00,,,0.00,meteohub,2013-10-11 22:28:00,
2013-10-11 17:33:00,74.1,48.2,29.45,South,180,1.0,4.0,40,0.00,,,0.00,meteohub,2013-10-11 22:33:00,
2013-10-11 17:38:00,73.8,48.0,29.45,SSE,158,4.0,4.0,40,0.00,,,0.00,meteohub,2013-10-11 22:38:00,
2013-10-11 17:43:00,73.6,48.4,29.45,SSE,158,3.0,4.0,41,0.00,,,0.00,meteohub,2013-10-11 22:43:00,
2013-10-11 17:48:00,73.2,48.2,29.45,SSE,158,3.0,4.0,41,0.00,,,0.00,meteohub,2013-10-11 22:48:00,
2013-10-11 17:53:00,72.9,48.4,29.45,South,180,1.0,4.0,42,0.00,,,0.00,meteohub,2013-10-11 22:53:00,
2013-10-11 17:58:00,72.5,48.2,29.45,South,180,3.0,4.0,42,0.00,,,0.00,meteohub,2013-10-11 22:58:00,
2013-10-11 18:03:00,72.1,47.8,29.45,ESE,112,1.0,4.0,42,0.00,,,0.00,meteohub,2013-10-11 23:03:00,
2013-10-11 18:09:00,71.8,47.5,29.45,SSW,202,1.0,3.0,42,0.00,,,0.00,meteohub,2013-10-11 23:09:00,
2013-10-11 18:14:00,71.4,47.8,29.45,South,180,1.0,3.0,43,0.00,,,0.00,meteohub,2013-10-11 23:14:00,
2013-10-11 18:19:00,71.1,47.5,29.45,South,180,0.0,3.0,43,0.00,,,0.00,meteohub,2013-10-11 23:19:00,
2013-10-11 18:24:00,70.7,47.1,29.45,South,180,1.0,3.0,43,0.00,,,0.00,meteohub,2013-10-11 23:24:00,
2013-10-11 18:29:00,70.0,47.1,29.45,South,180,0.0,1.0,44,0.00,,,0.00,meteohub,2013-10-11 23:29:00,
2013-10-11 18:34:00,69.4,47.1,29.45,South,180,0.0,1.0,45,0.00,,,0.00,meteohub,2013-10-11 23:34:00,
2013-10-11 18:39:00,69.1,47.5,29.45,South,180,0.0,1.0,46,0.00,,,0.00,meteohub,2013-10-11 23:39:00,
2013-10-11 18:44:00,68.7,47.1,29.45,South,180,0.0,1.0,46,0.00,,,0.00,meteohub,2013-10-11 23:44:00,
2013-10-11 18:49:00,68.4,46.8,29.45,South,180,1.0,0.0,46,0.00,,,0.00,meteohub,2013-10-11 23:49:00,
2013-10-11 18:54:00,68.0,47.1,29.45,South,180,1.0,1.0,47,0.00,,,0.00,meteohub,2013-10-11 23:54:00,
2013-10-11 18:59:00,67.6,47.3,29.45,South,180,1.0,1.0,48,0.00,,,0.00,meteohub,2013-10-11 23:59:00,
2013-10-11 19:04:00,67.5,47.7,29.45,South,180,1.0,1.0,49,0.00,,,0.00,meteohub,2013-10-12 00:04:00,
2013-10-11 19:09:00,67.3,47.5,29.45,North,-999,-999.0,1.0,49,0.00,,,0.00,meteohub,2013-10-12 00:09:00,
2013-10-11 19:15:00,66.9,47.7,29.45,North,-999,-999.0,1.0,50,0.00,,,0.00,meteohub,2013-10-12 00:15:00,
2013-10-11 19:20:00,66.6,47.3,29.45,South,180,0.0,0.0,50,0.00,,,0.00,meteohub,2013-10-12 00:20:00,
2013-10-11 19:25:00,66.4,47.7,29.45,South,180,0.0,0.0,51,0.00,,,0.00,meteohub,2013-10-12 00:25:00,
2013-10-11 19:30:00,66.2,47.5,29.45,South,180,0.0,0.0,51,0.00,,,0.00,meteohub,2013-10-12 00:30:00,
2013-10-11 19:35:00,65.8,47.7,29.48,South,180,0.0,0.0,52,0.00,,,0.00,meteohub,2013-10-12 00:35:00,
2013-10-11 19:40:00,65.7,48.0,29.48,North,-999,-999.0,0.0,53,0.00,,,0.00,meteohub,2013-10-12 00:40:00,
2013-10-11 19:45:00,65.3,47.7,29.48,South,180,0.0,0.0,53,0.00,,,0.00,meteohub,2013-10-12 00:45:00,
2013-10-11 19:50:00,65.1,48.0,29.48,South,180,0.0,0.0,54,0.00,,,0.00,meteohub,2013-10-12 00:50:00,
2013-10-11 19:55:00,64.9,48.4,29.48,South,180,0.0,0.0,55,0.00,,,0.00,meteohub,2013-10-12 00:55:00,
2013-10-11 20:00:00,64.8,48.2,29.48,South,180,0.0,0.0,55,0.00,,,0.00,meteohub,2013-10-12 01:00:00,
2013-10-11 20:05:00,64.6,48.6,29.48,North,-999,-999.0,0.0,56,0.00,,,0.00,meteohub,2013-10-12 01:05:00,
2013-10-11 20:11:00,64.4,48.9,29.48,North,-999,-999.0,0.0,57,0.00,,,0.00,meteohub,2013-10-12 01:11:00,
2013-10-11 20:16:00,64.2,49.1,29.48,North,-999,-999.0,-999.0,58,0.00,,,0.00,meteohub,2013-10-12 01:16:00,
2013-10-11 20:21:00,63.9,48.7,29.48,South,180,0.0,-999.0,58,0.00,,,0.00,meteohub,2013-10-12 01:21:00,
2013-10-11 20:26:00,63.9,49.3,29.48,South,180,0.0,0.0,59,0.00,,,0.00,meteohub,2013-10-12 01:26:00,
2013-10-11 20:31:00,63.7,49.6,29.48,South,180,1.0,1.0,60,0.00,,,0.00,meteohub,2013-10-12 01:31:00,
2013-10-11 20:36:00,63.5,49.5,29.48,South,180,0.0,1.0,60,0.00,,,0.00,meteohub,2013-10-12 01:36:00,
2013-10-11 20:41:00,63.1,49.1,29.48,South,180,0.0,1.0,60,0.00,,,0.00,meteohub,2013-10-12 01:41:00,
2013-10-11 20:46:00,63.1,49.5,29.48,South,180,0.0,1.0,61,0.00,,,0.00,meteohub,2013-10-12 01:46:00,
2013-10-11 20:51:00,62.8,49.1,29.48,South,180,0.0,0.0,61,0.00,,,0.00,meteohub,2013-10-12 01:51:00,
2013-10-11 20:56:00,62.4,48.7,29.48,South,180,0.0,0.0,61,0.00,,,0.00,meteohub,2013-10-12 01:56:00,
2013-10-11 21:02:00,62.2,49.1,29.48,South,180,1.0,1.0,62,0.00,,,0.00,meteohub,2013-10-12 02:02:00,
2013-10-11 21:07:00,62.2,49.5,29.48,South,180,1.0,1.0,63,0.00,,,0.00,meteohub,2013-10-12 02:07:00,
2013-10-11 21:12:00,62.4,49.6,29.48,South,180,0.0,1.0,63,0.00,,,0.00,meteohub,2013-10-12 02:12:00,
2013-10-11 21:17:00,62.2,49.5,29.48,South,180,0.0,1.0,63,0.00,,,0.00,meteohub,2013-10-12 02:17:00,
2013-10-11 21:22:00,62.2,50.0,29.48,South,180,0.0,1.0,64,0.00,,,0.00,meteohub,2013-10-12 02:22:00,
2013-10-11 21:27:00,62.2,50.0,29.48,South,180,1.0,1.0,64,0.00,,,0.00,meteohub,2013-10-12 02:27:00,
2013-10-11 21:32:00,62.1,49.8,29.48,South,180,0.0,1.0,64,0.00,,,0.00,meteohub,2013-10-12 02:32:00,
2013-10-11 21:37:00,61.9,50.0,29.48,South,180,0.0,1.0,65,0.00,,,0.00,meteohub,2013-10-12 02:37:00,
2013-10-11 21:42:00,61.7,49.8,29.48,South,180,0.0,1.0,65,0.00,,,0.00,meteohub,2013-10-12 02:42:00,
2013-10-11 21:47:00,61.7,49.8,29.48,South,180,0.0,0.0,65,0.00,,,0.00,meteohub,2013-10-12 02:47:00,
2013-10-11 21:52:00,61.3,49.5,29.48,South,180,0.0,1.0,65,0.00,,,0.00,meteohub,2013-10-12 02:52:00,
2013-10-11 21:57:00,61.3,49.8,29.48,South,180,0.0,1.0,66,0.00,,,0.00,meteohub,2013-10-12 02:57:00,
2013-10-11 22:02:00,61.3,49.8,29.48,South,180,0.0,1.0,66,0.00,,,0.00,meteohub,2013-10-12 03:02:00,
2013-10-11 22:07:00,61.2,49.6,29.48,South,180,0.0,0.0,66,0.00,,,0.00,meteohub,2013-10-12 03:07:00,
2013-10-11 22:12:00,61.0,49.6,29.48,South,180,0.0,0.0,66,0.00,,,0.00,meteohub,2013-10-12 03:12:00,
2013-10-11 22:17:00,61.0,50.0,29.48,South,180,0.0,0.0,67,0.00,,,0.00,meteohub,2013-10-12 03:17:00,
2013-10-11 22:22:00,60.8,49.8,29.48,South,180,1.0,1.0,67,0.00,,,0.00,meteohub,2013-10-12 03:22:00,
2013-10-11 22:27:00,60.6,49.6,29.48,South,180,0.0,1.0,67,0.00,,,0.00,meteohub,2013-10-12 03:27:00,
2013-10-11 22:32:00,60.6,50.0,29.48,South,180,0.0,1.0,68,0.00,,,0.00,meteohub,2013-10-12 03:32:00,
2013-10-11 22:37:00,60.6,50.0,29.48,South,180,0.0,1.0,68,0.00,,,0.00,meteohub,2013-10-12 03:37:00,
2013-10-11 22:42:00,60.4,50.2,29.48,South,180,0.0,0.0,69,0.00,,,0.00,meteohub,2013-10-12 03:42:00,
2013-10-11 22:47:00,60.3,49.6,29.48,South,180,0.0,0.0,68,0.00,,,0.00,meteohub,2013-10-12 03:47:00,
2013-10-11 22:52:00,60.3,50.0,29.48,South,180,0.0,0.0,69,0.00,,,0.00,meteohub,2013-10-12 03:52:00,
2013-10-11 22:57:00,60.1,49.8,29.48,South,180,0.0,0.0,69,0.00,,,0.00,meteohub,2013-10-12 03:57:00,
2013-10-11 23:01:00,60.1,50.4,29.48,South,180,0.0,1.0,70,0.00,,,0.00,meteohub,2013-10-12 04:01:00,
2013-10-11 23:02:00,60.1,50.4,29.48,South,180,0.0,1.0,70,0.00,,,0.00,meteohub,2013-10-12 04:02:00,
2013-10-11 23:08:00,59.9,50.2,29.51,South,180,0.0,1.0,70,0.00,,,0.00,meteohub,2013-10-12 04:08:00,
2013-10-11 23:09:00,59.9,50.2,29.51,South,180,0.0,1.0,70,0.00,,,0.00,meteohub,2013-10-12 04:09:00,
2013-10-11 23:14:00,59.9,50.2,29.51,South,180,0.0,1.0,70,0.00,,,0.00,meteohub,2013-10-12 04:14:00,
2013-10-11 23:19:00,59.7,50.0,29.51,South,180,0.0,0.0,70,0.00,,,0.00,meteohub,2013-10-12 04:19:00,
2013-10-11 23:24:00,59.7,50.0,29.51,South,180,0.0,0.0,70,0.00,,,0.00,meteohub,2013-10-12 04:24:00,
2013-10-11 23:29:00,59.7,50.4,29.51,South,180,0.0,0.0,71,0.00,,,0.00,meteohub,2013-10-12 04:29:00,
2013-10-11 23:34:00,59.9,50.5,29.51,South,180,0.0,0.0,71,0.00,,,0.00,meteohub,2013-10-12 04:34:00,
2013-10-11 23:39:00,59.9,50.9,29.51,South,180,0.0,0.0,72,0.00,,,0.00,meteohub,2013-10-12 04:39:00,
2013-10-11 23:44:00,60.1,51.1,29.51,South,180,0.0,0.0,72,0.00,,,0.00,meteohub,2013-10-12 04:44:00,
2013-10-11 23:49:00,60.1,51.1,29.51,South,180,0.0,0.0,72,0.00,,,0.00,meteohub,2013-10-12 04:49:00,
2013-10-11 23:54:00,60.1,51.1,29.51,South,180,0.0,0.0,72,0.00,,,0.00,meteohub,2013-10-12 04:54:00,
2013-10-11 23:59:00,60.1,51.1,29.51,South,180,0.0,0.0,72,0.00,,,0.00,meteohub,2013-10-12 04:59:00,